Regional Weather Roundup
Issued by NWS Boston, MA

Home | Current Version | Previous Version | Text Only | Print | Product List | Glossary On
Versions: 1 2 3 4 5 6 7 8 9 10 11 12 13 14 15 16 17 18 19 20 21 22 23 24 25 26 27 28 29 30 31 32 33 34 35 36 37 38 39 40 41 42 43 44 45 46 47 48 49 50
000
ASUS41 KBOX 171810
RWRBOX

REGIONAL WEATHER ROUNDUP
NATIONAL WEATHER SERVICE TAUNTON MA
200 PM EDT THU AUG 17 2017

NOTE:  "FAIR" INDICATES FEW OR NO CLOUDS BELOW 12,000 FEET WITH NO
SIGNIFICANT WEATHER AND/OR OBSTRUCTIONS TO VISIBILITY.

MAZALL-171900-
EASTERN MASSACHUSETTS

CITY           SKY/WX    TMP DP  RH WIND       PRES   REMARKS
BOSTON         MOSUNNY   80  47  31 W8G17     30.01F
6HR MIN TEMP:  68; 6HR MAX TEMP:  81;

BEVERLY        SUNNY     81  52  36 W10       29.99F
LAWRENCE       SUNNY     83  50  31 W10G18    30.01F
BEDFORD        SUNNY     79  48  33 NW9       30.00F
BLUE HILL        N/A     78  47  33 VRB6      30.02F
NORWOOD        SUNNY     81  50  33 N5        30.01F
MARSHFIELD     SUNNY     77  50  38 E7        30.01F
PLYMOUTH       SUNNY     81  45  28 VRB6      30.02F
TAUNTON        SUNNY     81  47  30 VRB5      30.01F
NEW BEDFORD    SUNNY     80  52  37 S7        30.01F
$$

MAZALL-171900-
CAPE COD AND THE ISLANDS

CITY           SKY/WX    TMP DP  RH WIND       PRES   REMARKS
FALMOUTH       MOSUNNY   77  57  50 S8        30.03F
HYANNIS        SUNNY     75  57  53 MISG        N/A
CHATHAM        SUNNY     75  60  59 SW7       30.05S
PROVINCETOWN   SUNNY     76  52  43 SW9       30.03F
NANTUCKET      MOSUNNY   71  59  65 SE9       30.04F
MARTHAS VNYRD  SUNNY     76  60  57 S7        30.04S
$$

MAZALL-171900-
CENTRAL AND WESTERN MASSACHUSETTS

CITY           SKY/WX    TMP DP  RH WIND       PRES   REMARKS
WORCESTER      SUNNY     75  44  33 W5        30.05F
6HR MIN TEMP:  62; 6HR MAX TEMP:  75;

FITCHBURG      SUNNY     81  48  31 VRB5      30.03F
ORANGE         SUNNY     76  45  33 W5        30.03F
SPRINGFIELD    PTSUNNY   78  49  35 SW6       30.02F
WESTFIELD      SUNNY     78  49  35 S8        30.03F
NORTH ADAMS    MOSUNNY   77  54  44 VRB6      30.03F
PITTSFIELD     SUNNY     75  42  30 SW5       30.05F
$$

RIZALL-171900-
RHODE ISLAND

CITY           SKY/WX    TMP DP  RH WIND       PRES   REMARKS
PROVIDENCE     MOSUNNY   80  50  34 SE6       30.04F
6HR MIN TEMP:  68; 6HR MAX TEMP:  81;

NEWPORT        SUNNY     77  52  41 S6        30.04F
BLOCK ISLAND   SUNNY     76  47  35 S8        30.05F
WESTERLY       SUNNY     75  52  44 S9        30.05F
$$

CTZALL-171900-
CONNECTICUT

CITY           SKY/WX    TMP DP  RH WIND       PRES   REMARKS
BRADLEY INTL   PTSUNNY   79  48  34 CALM      30.04F
HARTFORD       SUNNY     79  51  37 SW6       30.03F
BRIDGEPORT     SUNNY     76  52  43 SE7       30.04F
DANBURY        MOSUNNY   79  58  48 VRB7      30.05F
GROTON         SUNNY     74  55  51 S9        30.04F
NEW HAVEN      SUNNY     78  53  41 S9        30.04F
CHESTER        NOT AVBL
MERIDEN        SUNNY     79  55  43 CALM      30.03F
WILLIMANTIC    SUNNY     79  50  36 W7        30.03F
OXFORD         MOSUNNY   76  57  51 VRB7      30.06F
$$

MEZ002-015-021-024-NHZ003-005-008-011-012-014-VTZ005-008-171900-
NORTHERN NEW ENGLAND

CITY           SKY/WX    TMP DP  RH WIND       PRES   REMARKS
PORTLAND ME    MOSUNNY   79  50  36 N6        29.96F
6HR MIN TEMP:  61; 6HR MAX TEMP:  80;

BANGOR ME      MOSUNNY   78  43  28 NW15G26   29.91F
CONCORD NH     SUNNY     80  53  39 NW12      30.00F
MANCHESTER NH  PTSUNNY   80  48  32 W12       29.99F
NASHUA NH      MOSUNNY   80  50  34 NW7G20    30.01F
PORTSMOUTH NH  PTSUNNY   81  53  38 W13       29.97F
JAFFREY NH     SUNNY     77  48  35 VRB6      30.05F
KEENE NH         N/A    N/A N/A N/A MISG        N/A
BURLINGTON VT  MOSUNNY   78  52  40 VRB3      30.01F
MT. WASHINGTON FOG       43  43 100 NW48G58     N/A  VSB 1/16WCI  30
$$

NYZ052-076-171900-
EASTERN NEW YORK

CITY           SKY/WX    TMP DP  RH WIND       PRES   REMARKS
ALBANY         PTSUNNY   78  51  38 NW5       30.03F
6HR MIN TEMP:  59; 6HR MAX TEMP:  78;

NEW YORK CITY  MOSUNNY   79  65  62 NE9       30.02F
6HR MIN TEMP:  70; 6HR MAX TEMP:  80;

$$

ANZALL-171900-
MARINE OBSERVATIONS

STATION/POSITION TIME  TEMP    WIND        PRES    VSBY  WAVE
                       AIR SEA DIR/SP/G                  HT/PER
                 (UTC) (F)     (DEG/KT/KT) (MB)    (MI)  (FT/S)
BOSTON BUOY      1750   71 69  210/  6/  8 1016.0F         1/11
BUZZARDS BAY     1700   68     180/  5/  5 1018.0F
NANTUCKET SOUND  1750   70 71  210/  4/  4 1017.3F         1/ 5
MASS BAY-STELLWA 1704   69 68  210/ 12/ 14 1016.0F         1/10
ISLE OF SHOALS   1700   72     270/ 10/ 10 1015.7F
S OF BLOCK IS    NOT AVBL
$$

......................KEY.........................
  SKY/WX - SKY CONDITION/PRESENT WEATHER
  TMP    - TEMPERATURE IN FAHRENHEIT
  DWPT   - DEWPOINT IN FAHRENHEIT
  RH     - RELATIVE HUMIDITY IN PERCENT
  WIND   - DIRECTION AND SPEED IN MPH
  PRES   - MEAN SEA LEVEL PRESSURE IN INCHES OF HG
  WCI    - WIND CHILL INDEX
  VSB    - VISIBILITY IN MILES
  HX     - HEAT INDEX
  TC     - TEMPERATURE IN CELSIUS
  VRB    - VARIABLE WIND DIRECTION
  N/A    - NOT AVAILABLE



USA.gov is the U.S. government's official web portal to all federal, state and local government web resources and services.